Ludington, MI

1:43 AM EDT on October 21, 2019 (GMT -0400)
Mason County

Weather History for KLDM - August, 2019

Change the Weather History Date:

Friday, August 30, 2019

  Actual Average Record
Temperature  
Mean Temperature 58 °F -  
Max Temperature 68 °F 77 °F 89 °F (1991)
Min Temperature 47 °F 58 °F 38 °F (1976)
Degree Days  
Heating Degree Days 8    
Growing Degree Days 8 (Base 50)    
Moisture  
Dew Point 51 °F    
Average Humidity 70    
Maximum Humidity 96    
Minimum Humidity 42    
Precipitation  
Precipitation 0.00 in - - ()
Sea Level Pressure  
Sea Level Pressure 30.07 in    
Wind  
Wind Speed 4 mph (NW)    
Max Wind Speed 9 mph    
Max Gust Speed -    
Visibility 10 miles    
Events      
Averages and records for this station are not official NWS values.
T = Trace of Precipitation, MM = Missing Value Source: NWS Daily Summary

Daily Weather History Graph

Daily Weather History Graph

Search for Another Location

Airport or City:

Astronomy

Aug. 30, 2019 Rise Set
Actual Time 7:06 AM EDT 8:25 PM EDT
Civil Twilight 6:36 AM EDT 8:55 PM EDT
Nautical Twilight 6:00 AM EDT 9:31 PM EDT
Astronomical Twilight 5:22 AM EDT 10:08 PM EDT
Moon 7:04 AM EDT (8/30) 9:01 PM EDT (8/30)
Length of Visible Light 14h 18m
Length of Day
13h 18m
New Moon, 0% of the Moon is Illuminated
Aug 30
New Moon
Sep 5
First Quarter
Sep 14
Full
Sep 21
Last Quarter
Sep 28
New

Hourly Weather History & Observations

Time (EDT) Temp. Dew Point Humidity Pressure Visibility Wind Dir Wind Speed Gust Speed Precip Events Conditions
12:15 AM 65.3 °F 57.0 °F 75% 29.88 in 10.0 mi NNW 5.8 mph - N/A   Clear
12:35 AM 64.9 °F 56.8 °F 75% 29.89 in 10.0 mi North 8.1 mph - N/A   Clear
12:40 AM 64.6 °F 56.3 °F 74% 29.89 in 10.0 mi NNW 6.9 mph - N/A   Clear
12:58 AM 64.6 °F 55.8 °F 73% 29.90 in 10.0 mi NNW 8.1 mph - N/A   Scattered Clouds
1:16 AM 64.4 °F 54.5 °F 70% 29.91 in 10.0 mi NNW 8.1 mph - N/A   Mostly Cloudy
1:35 AM 62.6 °F 54.1 °F 74% 29.92 in 10.0 mi NNW 4.6 mph - N/A   Mostly Cloudy
1:55 AM 61.3 °F 54.5 °F 78% 29.92 in 10.0 mi Calm Calm - N/A   Scattered Clouds
2:19 AM 61.7 °F 54.7 °F 78% 29.93 in 10.0 mi Calm Calm - N/A   Mostly Cloudy
2:37 AM 60.8 °F 54.3 °F 79% 29.93 in 10.0 mi Calm Calm - N/A   Clear
2:55 AM 60.8 °F 54.0 °F 78% 29.94 in 10.0 mi Calm Calm - N/A   Clear
2:56 AM 60.8 °F 54.0 °F 78% 29.94 in 10.0 mi Calm Calm - N/A   Clear
3:15 AM 57.2 °F 55.2 °F 93% 29.94 in 10.0 mi Calm Calm - N/A   Clear
3:35 AM 57.4 °F 53.2 °F 86% 29.94 in 10.0 mi Calm Calm - N/A   Clear
3:58 AM 56.5 °F 52.7 °F 87% 29.94 in 10.0 mi Calm Calm - N/A   Clear
4:16 AM 54.5 °F 53.4 °F 96% 29.94 in 10.0 mi Calm Calm - N/A   Clear
4:35 AM 52.2 °F 50.9 °F 95% 29.94 in 10.0 mi Calm Calm - N/A   Clear
4:36 AM 52.2 °F 50.9 °F 95% 29.94 in 10.0 mi Calm Calm - N/A   Clear
4:55 AM 53.2 °F 51.6 °F 94% 29.95 in 10.0 mi Calm Calm - N/A   Clear
5:19 AM 57.2 °F 52.0 °F 83% 29.95 in 10.0 mi NW 4.6 mph - N/A   Clear
5:37 AM 55.9 °F 51.1 °F 84% 29.95 in 10.0 mi NNW 4.6 mph - N/A   Clear
5:55 AM 59.0 °F 51.6 °F 76% 29.96 in 10.0 mi NW 3.5 mph - N/A   Clear
5:56 AM 59.2 °F 51.8 °F 77% 29.96 in 10.0 mi NW 3.5 mph - N/A   Clear
6:15 AM 59.5 °F 51.3 °F 74% 29.99 in 10.0 mi NW 5.8 mph - N/A   Clear
6:16 AM 59.5 °F 51.1 °F 74% 29.99 in 10.0 mi NW 5.8 mph - N/A   Clear
6:35 AM 58.8 °F 50.9 °F 75% 29.99 in 10.0 mi NW 4.6 mph - N/A   Clear
6:58 AM 57.0 °F 51.1 °F 81% 30.00 in 10.0 mi Calm Calm - N/A   Clear
7:16 AM 54.5 °F 52.0 °F 91% 30.01 in 10.0 mi Calm Calm - N/A   Clear
7:35 AM 55.9 °F 51.6 °F 85% 30.02 in 10.0 mi Calm Calm - N/A   Clear
7:36 AM 55.9 °F 51.6 °F 85% 30.02 in 10.0 mi Calm Calm - N/A   Clear
7:55 AM 53.2 °F 51.8 °F 95% 30.03 in 10.0 mi Calm Calm - N/A   Clear
7:56 AM 53.4 °F 52.0 °F 95% 30.03 in 10.0 mi Calm Calm - N/A   Clear
8:19 AM 56.8 °F 55.0 °F 94% 30.04 in 10.0 mi Calm Calm - N/A   Clear
8:37 AM 60.8 °F 54.7 °F 80% 30.04 in 10.0 mi Calm Calm - N/A   Clear
8:55 AM 63.0 °F 53.1 °F 70% 30.05 in 10.0 mi WNW 4.6 mph - N/A   Clear
9:15 AM 64.0 °F 52.2 °F 65% 30.06 in 10.0 mi NNW 5.8 mph - N/A   Clear
9:16 AM 64.0 °F 52.0 °F 65% 30.06 in 10.0 mi NNW 4.6 mph - N/A   Clear
9:35 AM 64.8 °F 52.9 °F 65% 30.07 in 10.0 mi NW 8.1 mph - N/A   Clear
9:40 AM 64.8 °F 53.1 °F 66% 30.07 in 10.0 mi WNW 6.9 mph - N/A   Clear
9:58 AM 65.3 °F 53.1 °F 65% 30.08 in 10.0 mi NW 6.9 mph - N/A   Clear
10:16 AM 65.3 °F 51.1 °F 60% 30.09 in 10.0 mi NNW 8.1 mph - N/A   Clear
10:35 AM 65.3 °F 51.8 °F 62% 30.09 in 10.0 mi NW 9.2 mph - N/A   Clear
10:55 AM 65.5 °F 53.1 °F 64% 30.09 in 10.0 mi WNW 5.8 mph - N/A   Clear
11:19 AM 65.7 °F 52.2 °F 62% 30.10 in 10.0 mi WNW 4.6 mph - N/A   Clear
11:37 AM 66.4 °F 51.8 °F 59% 30.10 in 10.0 mi WNW 9.2 mph - N/A   Clear
11:55 AM 66.2 °F 51.8 °F 60% 30.10 in 10.0 mi WNW 8.1 mph - N/A   Clear
11:56 AM 66.0 °F 51.6 °F 60% 30.10 in 10.0 mi NW 5.8 mph - N/A   Clear
12:15 PM 66.4 °F 52.2 °F 60% 30.11 in 10.0 mi West 4.6 mph - N/A   Clear
12:35 PM 66.2 °F 51.3 °F 59% 30.11 in 10.0 mi NW 5.8 mph - N/A   Clear
12:58 PM 66.9 °F 49.6 °F 54% 30.12 in 10.0 mi NNW 9.2 mph - N/A   Clear
1:16 PM 67.6 °F 49.8 °F 53% 30.11 in 10.0 mi WNW 9.2 mph - N/A   Clear
1:35 PM 66.7 °F 48.7 °F 52% 30.11 in 10.0 mi WNW 9.2 mph - N/A   Clear
1:36 PM 66.9 °F 48.9 °F 52% 30.11 in 10.0 mi NW 9.2 mph - N/A   Clear
1:55 PM 67.3 °F 49.3 °F 52% 30.11 in 10.0 mi NW 6.9 mph - N/A   Clear
2:19 PM 66.9 °F 48.0 °F 51% 30.12 in 10.0 mi WNW 5.8 mph - N/A   Clear
2:37 PM 67.3 °F 49.5 °F 53% 30.12 in 10.0 mi NW 8.1 mph - N/A   Clear
2:55 PM 66.9 °F 50.2 °F 55% 30.12 in 10.0 mi West 8.1 mph - N/A   Clear
3:15 PM 67.6 °F 51.4 °F 56% 30.12 in 10.0 mi WNW 6.9 mph - N/A   Clear
3:16 PM 67.6 °F 51.1 °F 55% 30.12 in 10.0 mi WNW 5.8 mph - N/A   Clear
3:35 PM 67.6 °F 51.1 °F 55% 30.12 in 10.0 mi West 9.2 mph - N/A   Clear
3:40 PM 67.6 °F 50.0 °F 53% 30.12 in 10.0 mi West 9.2 mph - N/A   Clear
3:58 PM 67.3 °F 48.9 °F 52% 30.12 in 10.0 mi WNW 6.9 mph - N/A   Scattered Clouds
4:16 PM 68.2 °F 49.1 °F 50% 30.12 in 10.0 mi North 8.1 mph - N/A   Scattered Clouds
4:35 PM 67.6 °F 44.6 °F 43% 30.13 in 10.0 mi North 8.1 mph - N/A   Clear
4:55 PM 67.8 °F 45.1 °F 44% 30.13 in 10.0 mi NW 8.1 mph - N/A   Clear
4:56 PM 67.6 °F 45.3 °F 45% 30.13 in 10.0 mi NW 8.1 mph - N/A   Clear
5:19 PM 67.8 °F 44.6 °F 43% 30.14 in 10.0 mi NNW 5.8 mph - N/A   Clear
5:37 PM 67.3 °F 43.2 °F 42% 30.15 in 10.0 mi NW 5.8 mph - N/A   Clear
5:55 PM 67.5 °F 45.5 °F 45% 30.15 in 10.0 mi North 4.6 mph - N/A   Clear
6:15 PM 67.1 °F 46.8 °F 48% 30.16 in 10.0 mi NW 6.9 mph - N/A   Clear
6:16 PM 67.1 °F 46.8 °F 48% 30.16 in 10.0 mi NW 5.8 mph - N/A   Clear
6:35 PM 66.7 °F 47.3 °F 50% 30.16 in 10.0 mi WNW 5.8 mph - N/A   Clear
6:40 PM 66.9 °F 47.8 °F 50% 30.16 in 10.0 mi WNW 3.5 mph - N/A   Clear
6:58 PM 66.2 °F 48.4 °F 53% 30.16 in 10.0 mi WNW 3.5 mph - N/A   Clear
7:16 PM 65.5 °F 48.0 °F 53% 30.17 in 10.0 mi Calm Calm - N/A   Clear
7:35 PM 64.8 °F 49.1 °F 57% 30.18 in 10.0 mi Calm Calm - N/A   Clear
7:36 PM 64.8 °F 49.3 °F 57% 30.18 in 10.0 mi Calm Calm - N/A   Clear
7:55 PM 63.5 °F 48.6 °F 58% 30.18 in 10.0 mi Calm Calm - N/A   Clear
8:19 PM 58.8 °F 50.9 °F 75% 30.19 in 10.0 mi Calm Calm - N/A   Clear
8:37 PM 55.8 °F 51.3 °F 85% 30.20 in 10.0 mi Calm Calm - N/A   Clear
8:55 PM 56.3 °F 51.3 °F 83% 30.20 in 10.0 mi Calm Calm - N/A   Clear
9:15 PM 54.5 °F 51.1 °F 88% 30.21 in 10.0 mi Calm Calm - N/A   Clear
9:35 PM 53.4 °F 51.4 °F 93% 30.21 in 10.0 mi Calm Calm - N/A   Clear
9:58 PM 51.4 °F 50.2 °F 95% 30.22 in 10.0 mi Calm Calm - N/A   Clear
10:16 PM 51.1 °F 49.8 °F 95% 30.22 in 10.0 mi Calm Calm - N/A   Clear
10:35 PM 50.2 °F 48.9 °F 95% 30.22 in 10.0 mi Calm Calm - N/A   Clear
10:55 PM 50.5 °F 49.3 °F 95% 30.23 in 10.0 mi Calm Calm - N/A   Clear
11:19 PM 48.4 °F 47.3 °F 96% 30.23 in 10.0 mi Calm Calm - N/A   Clear
11:37 PM 50.0 °F 48.7 °F 95% 30.23 in 10.0 mi Calm Calm - N/A   Clear
11:55 PM 47.8 °F 46.6 °F 95% 30.24 in 10.0 mi Calm Calm - N/A   Clear
11:56 PM 47.3 °F 46.2 °F 96% 30.24 in 10.0 mi Calm Calm - N/A   Clear